sat.trackr.live / text

‹ back to catalog

STARLINK-34017

NORAD 64339 · 2025-124Y

PAYLOAD ACTIVE UNKNOWN

§ Identity

Operator
Country
US
Launch date
2025-06-10
Launch site
AFETR
Launch vehicle
Mass (kg)
RCS (m²)

Purposes: comms

External: N2YO · Heavens-Above · Gunter

§ Orbital elements

Epoch: 2026-05-25T01:56:54.866976Z

Period
94.27 min
Inclination
42.9991°
Eccentricity
0.0001334
Mean motion
15.27590494 rev/d
Perigee alt
482.1 km
Apogee alt
483.9 km
Semi-major
6,861.2 km
B*
3.4231e-4
RAAN
50.2692°
Arg perigee
259.3282°
Mean anomaly
100.7419°
Rev number
5,346

§ Raw data

STARLINK-340171 64339U 25124Y   26145.08119059  .00009172  00000+0  34231-3 0  99942 64339  42.9991  50.2692 0001334 259.3282 100.7419 15.27590494 53463

JSON: /api/v1/satellites/64339 · /tle

For live sub-satellite position, see the globe view (requires WebGL).

§ Visibility from observer

Set your observer location to see the next 7 days of passes ≥ 10°. The values pass through the URL so the page stays shareable.

No JS? Fill the form by hand. The geolocation button needs JavaScript.